World > North America > United States > Ohio

Hourly Reed, OH Regional Weather

Feedback E-mail the Weather

Quick WX

Reed, OH Weather Maps

°F °C°F °C
Reed Weather Map
UTC Time: 6/27/2022, 20:45
Your Time:

Reed, OH Regional Weather

Expires:202206272100;;292343
ASUS41 KCLE 272012
RWRCLE
OHIO REGIONAL WEATHER ROUNDUP
NATIONAL WEATHER SERVICE WILMINGTON, OH
400 PM EDT MON JUN 27 2022

NOTE: "FAIR" INDICATES FEW OR NO CLOUDS BELOW 12,000 FEET WITH NO
SIGNIFICANT WEATHER AND/OR OBSTRUCTIONS TO VISIBILITY.


OHZ001>008-015>018-024>027-034-035-043-044-272100-
   NORTHWEST OHIO
  
CITY           SKY/WX    TMP DP  RH WIND       PRES   REMARKS
DEFIANCE       FAIR      76  45  33 W10G21    30.15F                  
FINDLAY        FAIR      78  44  29 W13G26    30.13F                  
TOLEDO EXPRESS PTSUNNY   79  43  27 W14G24    30.13F                  
TOLEDO EXEC    PTSUNNY   77  45  32 W17G24    30.14F                  
LIMA           PTSUNNY   77  42  28 W17G24    30.15F                  
$$
 

SKY/WX - Weather  TMP - Temperature  DP - Dew Point  RH - Humidity
WIND - Wind Direction/Speed PRES - Barometric Pressure VSB - Visibility
WCI - Wind Chill Index E13G22 Wind - East Wind 13 mph/Gusts of 22 mph

Trending Headlines

Reed Radar Loop



Reed Quick Facts


National Two Day Weather Forecast


E-mail the Reed Weather Forecast

Voice your opinion or tell us about page issues...